HB9DOZ-13 Weather Reports


time (UTC)temp
C
wind
direction
speed
KPH
gust
KPH
rain 1hr
cm
rain 24hr
cm
rain mn
cm
humidity
%
barometer
mb
20260505164515 13 308 0.0 3.2 0.00 0.00 0.00 83
20260505163516 13 279 0.0 1.6 0.00 0.00 0.00 83
20260505162516 13 267 1.6 4.8 0.00 0.00 0.00 82
20260505161536 13 263 0.0 3.2 0.00 0.00 0.00 82
20260505160517 13 268 1.6 6.4 0.00 0.00 0.00 81
20260505152515 13 231 4.8 20.9 0.00 0.00 0.00 82
20260505151516 13 232 1.6 6.4 0.00 0.00 0.00 86
20260505150516 13 274 0.0 1.6 0.00 0.00 0.00 88
20260505140515 12 221 1.6 6.4 0.00 0.00 0.00 90
20260505124516 15 217 4.8 16.1 0.00 0.00 0.00 82
20260505123516 15 197 4.8 20.9 0.00 0.00 0.00 87
20260505122517 15 230 3.2 12.9 0.00 0.00 0.00 85
20260505121517 15 224 1.6 8.0 0.00 0.00 0.00 85
20260505120515 15 230 1.6 6.4 0.00 0.00 0.00 85
20260505115515 15 222 3.2 11.3 0.00 0.00 0.00 85
20260505114516 15 216 1.6 9.7 0.00 0.00 0.00 86
20260505113536 14 0.0 0.0 0.00 0.00 0.00 90
20260505112517 13 200 1.6 8.0 0.00 0.00 0.00 90
20260505111517 13 189 3.2 9.7 0.00 0.00 0.00 91
20260505110518 13 178 4.8 11.3 0.00 0.00 0.00 92
20260505101517 12 163 0.0 3.2 0.00 0.00 0.00 94
20260505100517 12 189 0.0 1.6 0.00 0.00 0.00 95
20260505095517 12 0.0 0.0 0.00 0.00 0.00 95
20260505094515 12 172 0.0 3.2 0.00 0.00 0.00 95
20260505093515 12 201 1.6 6.4 0.00 0.00 0.00 95
20260505092515 12 0.0 0.0 0.00 0.00 0.00 96
20260505091516 11 0.0 0.0 0.00 0.00 0.00 97
20260505090537 11 0.0 0.0 0.00 0.00 0.00 98
20260505085517 11 129 0.0 1.6 0.00 0.00 0.00 98
20260505084517 11 0.0 0.0 0.00 0.00 0.00 98
20260505083535 11 128 3.2 4.8 0.00 0.00 0.00 98
20260505082516 11 140 1.6 3.2 0.00 0.00 0.00 98
20260505081516 10 132 1.6 6.4 0.00 0.00 0.00 98
20260505080516 10 144 1.6 3.2 0.00 0.00 0.00 98
20260505075517 10 135 1.6 4.8 0.00 0.00 0.00 98
20260505074517 10 154 1.6 3.2 0.00 0.00 0.00 98
20260505073518 10 165 3.2 6.4 0.00 0.00 0.00 99
20260505072515 10 183 1.6 6.4 0.00 0.00 0.00 99
20260505071515 10 199 0.0 3.2 0.00 0.00 0.00 99
20260505070636 10 0.0 0.0 0.00 0.00 0.00 99
20260505065516 10 0.0 0.0 0.00 0.00 0.00 99
20260505064517 10 189 0.0 1.6 0.00 0.00 0.00 99
20260505063617 10 197 0.0 3.2 0.00 0.00 0.00 99
20260505062537 10 0.0 0.0 0.00 0.00 0.00 98
20260505061536 10 0.0 0.0 0.00 0.00 0.00 99
20260505060515 10 221 0.0 1.6 0.00 0.00 0.00 98
20260505055516 10 180 1.6 6.4 0.00 0.00 0.00 98
20260505054536 10 222 0.0 1.6 0.00 0.00 0.00 98
20260505053518 9 220 0.0 3.2 0.00 0.00 0.00 99
20260505052517 9 223 0.0 3.2 0.00 0.00 0.00 99
20260505051517 9 0.0 0.0 0.00 0.00 0.00 99
20260505050515 9 117 0.0 1.6 0.00 0.00 0.00 99
20260505041517 9 0.0 0.0 0.00 0.00 0.00 98
20260505040517 9 0.0 0.0 0.00 0.00 0.00 98
20260505035535 8 0.0 0.0 0.00 0.00 0.00 98
20260505034515 9 0.0 0.0 0.00 0.00 0.00 98
20260505033516 9 0.0 0.0 0.00 0.00 0.00 98
20260505032516 9 0.0 0.0 0.00 0.00 0.00 98
20260505031516 9 0.0 0.0 0.00 0.00 0.00 97
20260505030516 9 0.0 0.0 0.00 0.00 0.00 97
20260505025557 9 0.0 0.0 0.00 0.00 0.00 97
20260505024515 9 0.0 0.0 0.00 0.00 0.00 97
20260505023515 9 0.0 0.0 0.00 0.00 0.00 97
20260505022516 9 0.0 0.0 0.00 0.00 0.00 97
20260505021516 9 342 0.0 1.6 0.00 0.00 0.00 97
20260505020516 9 10 0.0 1.6 0.00 0.00 0.00 96
20260505015517 9 10 0.0 1.6 0.00 0.00 0.00 96
20260505014537 9 14 0.0 3.2 0.00 0.00 0.00 96
20260505013515 9 0.0 0.0 0.00 0.00 0.00 96
20260505012515 9 0.0 0.0 0.00 0.00 0.00 96
20260505011516 9 0.0 0.0 0.00 0.00 0.00 96
20260505010516 9 346 0.0 1.6 0.00 0.00 0.00 96
20260505005516 9 346 0.0 1.6 0.00 0.00 0.00 96
20260505004517 10 347 0.0 1.6 0.00 0.00 0.00 96
20260505003518 10 0.0 0.0 0.00 0.00 0.00 96
20260505002515 10 339 0.0 1.6 0.00 0.00 0.00 96
20260505001515 10 0.0 0.0 0.00 0.00 0.00 96
20260505000516 10 0.0 0.0 0.00 0.00 0.00 95
20260504235516 10 0.0 0.0 0.00 0.00 0.00 95
20260504234536 10 123 1.6 1.6 0.00 0.00 0.00 96
20260504233517 10 7 1.6 3.2 0.00 0.00 0.00 96
20260504232518 10 0.0 0.0 0.00 0.00 0.00 96
20260504231515 10 0.0 0.0 0.00 0.00 0.00 96
20260504230515 10 0.0 0.0 0.00 0.00 0.00 96
20260504225515 10 0.0 0.0 0.00 0.00 0.00 96
20260504224517 9 17 0.0 1.6 0.00 0.00 0.00 96
20260504223517 9 17 0.0 1.6 0.00 0.00 0.00 96
20260504222517 9 5 1.6 3.2 0.00 0.00 0.00 96
20260504221517 9 12 1.6 1.6 0.00 0.00 0.00 96
20260504220516 9 8 3.2 4.8 0.00 0.00 0.00 96
20260504215516 9 351 1.6 3.2 0.00 0.00 0.00 95
20260504214516 9 18 3.2 4.8 0.00 0.00 0.00 95
20260504213516 9 349 0.0 1.6 0.00 0.00 0.00 96
20260504212516 9 352 1.6 3.2 0.00 0.00 0.00 96
20260504211517 9 343 1.6 3.2 0.00 0.00 0.00 95
20260504210557 10 16 3.2 4.8 0.00 0.00 0.00 95
20260504205515 10 9 1.6 1.6 0.00 0.00 0.00 95
20260504204515 10 355 1.6 3.2 0.00 0.00 0.00 95
20260504203515 10 342 1.6 1.6 0.00 0.00 0.00 95
20260504202516 10 343 0.0 1.6 0.00 0.00 0.00 95
20260504201516 10 0.0 0.0 0.00 0.00 0.00 95
20260504200517 10 0.0 0.0 0.00 0.00 0.00 95
20260504195517 10 0.0 0.0 0.00 0.00 0.00 96
20260504194515 10 0.0 0.0 0.00 0.00 0.00 95
20260504193515 10 0.0 0.0 0.00 0.00 0.00 94
20260504192516 11 0.0 0.0 0.00 0.00 0.00 93
20260504191516 11 0.0 0.0 0.00 0.00 0.00 93
20260504190516 11 0.0 0.0 0.00 0.00 0.00 93
20260504185517 11 195 0.0 1.6 0.00 0.00 0.00 92
20260504184517 11 200 1.6 4.8 0.00 0.00 0.00 93
20260504183514 11 169 3.2 8.0 0.00 0.00 0.00 93
20260504182515 11 176 1.6 4.8 0.00 0.00 0.00 93
20260504181517 11 213 0.0 6.4 0.00 0.00 0.00 93
20260504180556 11 197 1.6 6.4 0.00 0.00 0.00 93
20260504175517 11 171 0.0 1.6 0.00 0.00 0.00 94
20260504174517 11 147 1.6 6.4 0.00 0.00 0.00 94
20260504173517 12 191 1.6 6.4 0.00 0.00 0.00 94
20260504172515 11 273 0.0 1.6 0.00 0.00 0.00 95
20260504171515 12 232 0.0 4.8 0.00 0.00 0.00 95
20260504170515 12 223 0.0 6.4 0.00 0.00 0.00 95